Time,TemperatureF,DewpointF,PressureIn,WindDirection,WindDirectionDegrees,WindSpeedMPH,WindSpeedGustMPH,Humidity,HourlyPrecipIn,Conditions,Clouds,dailyrainin,SoftwareType,DateUTC
2013-07-21 00:00:00,76.3,68.6,29.81,SE,138,4.0,19.0,77,0.00,,,0.00,Wunderground v.1.15,2013-07-21 05:00:00,
2013-07-21 00:05:00,76.2,68.5,29.81,SE,138,4.0,19.0,77,0.00,,,0.00,Wunderground v.1.15,2013-07-21 05:05:00,
2013-07-21 00:10:00,76.1,68.4,29.81,SE,139,4.0,19.0,77,0.00,,,0.00,Wunderground v.1.15,2013-07-21 05:10:00,
2013-07-21 00:15:00,76.0,68.3,29.81,SE,139,4.0,19.0,77,0.00,,,0.00,Wunderground v.1.15,2013-07-21 05:15:00,
2013-07-21 00:25:00,76.0,68.3,29.82,SE,139,1.0,19.0,77,0.00,,,0.00,Wunderground v.1.15,2013-07-21 05:25:00,
2013-07-21 00:30:00,75.8,68.1,29.82,SE,139,0.0,19.0,77,0.00,,,0.00,Wunderground v.1.15,2013-07-21 05:30:00,
2013-07-21 00:35:00,75.5,68.2,29.83,SE,139,0.0,19.0,78,0.00,,,0.00,Wunderground v.1.15,2013-07-21 05:35:00,
2013-07-21 00:40:00,75.3,68.0,29.82,SE,139,0.0,19.0,78,0.00,,,0.00,Wunderground v.1.15,2013-07-21 05:40:00,
2013-07-21 00:45:00,75.0,68.0,29.82,SE,139,0.0,19.0,79,0.00,,,0.00,Wunderground v.1.15,2013-07-21 05:45:00,
2013-07-21 00:55:00,74.7,67.8,29.82,SE,139,0.0,19.0,79,0.00,,,0.00,Wunderground v.1.15,2013-07-21 05:55:00,
2013-07-21 01:05:00,73.9,67.3,29.82,SE,139,1.0,19.0,80,0.00,,,0.00,Wunderground v.1.15,2013-07-21 06:05:00,
2013-07-21 01:10:00,73.4,67.6,29.81,SE,139,0.0,19.0,82,0.00,,,0.00,Wunderground v.1.15,2013-07-21 06:10:00,
2013-07-21 01:15:00,73.0,67.5,29.81,SE,139,0.0,19.0,83,0.00,,,0.00,Wunderground v.1.15,2013-07-21 06:15:00,
2013-07-21 01:20:00,72.8,67.3,29.81,SE,139,0.0,19.0,83,0.00,,,0.00,Wunderground v.1.15,2013-07-21 06:20:00,
2013-07-21 01:30:00,72.8,67.7,29.81,SE,139,0.0,19.0,84,0.00,,,0.00,Wunderground v.1.15,2013-07-21 06:30:00,
2013-07-21 01:35:00,72.8,67.3,29.81,SE,139,0.0,19.0,83,0.00,,,0.00,Wunderground v.1.15,2013-07-21 06:35:00,
2013-07-21 01:40:00,72.9,67.4,29.81,SE,139,0.0,19.0,83,0.00,,,0.00,Wunderground v.1.15,2013-07-21 06:40:00,
2013-07-21 01:45:00,72.9,67.1,29.81,SE,139,0.0,19.0,82,0.00,,,0.00,Wunderground v.1.15,2013-07-21 06:45:00,
2013-07-21 01:50:00,72.9,67.1,29.81,SE,139,0.0,19.0,82,0.00,,,0.00,Wunderground v.1.15,2013-07-21 06:50:00,
2013-07-21 02:00:00,72.6,67.1,29.81,SE,139,1.0,1.0,83,0.00,,,0.00,Wunderground v.1.15,2013-07-21 07:00:00,
2013-07-21 02:10:00,72.3,67.2,29.81,SE,139,0.0,19.0,84,0.00,,,0.00,Wunderground v.1.15,2013-07-21 07:10:00,
2013-07-21 02:15:00,72.2,67.1,29.81,SE,139,0.0,19.0,84,0.00,,,0.00,Wunderground v.1.15,2013-07-21 07:15:00,
2013-07-21 02:20:00,72.1,67.0,29.81,SE,139,0.0,19.0,84,0.00,,,0.00,Wunderground v.1.15,2013-07-21 07:20:00,
2013-07-21 02:25:00,71.9,67.1,29.81,SE,140,1.0,19.0,85,0.00,,,0.00,Wunderground v.1.15,2013-07-21 07:25:00,
2013-07-21 02:30:00,71.9,67.1,29.81,SE,140,2.0,2.0,85,0.00,,,0.00,Wunderground v.1.15,2013-07-21 07:30:00,
2013-07-21 02:40:00,71.6,67.2,29.81,SE,140,1.0,19.0,86,0.00,,,0.00,Wunderground v.1.15,2013-07-21 07:40:00,
2013-07-21 02:45:00,71.4,67.0,29.81,SE,140,2.0,19.0,86,0.00,,,0.00,Wunderground v.1.15,2013-07-21 07:45:00,
2013-07-21 02:50:00,71.1,67.0,29.81,SW,218,4.0,4.0,87,0.00,,,0.00,Wunderground v.1.15,2013-07-21 07:50:00,
2013-07-21 02:55:00,71.0,66.9,29.81,SW,221,4.0,19.0,87,0.00,,,0.00,Wunderground v.1.15,2013-07-21 07:55:00,
2013-07-21 03:05:00,70.7,66.6,29.81,WSW,257,4.0,19.0,87,0.00,,,0.00,Wunderground v.1.15,2013-07-21 08:05:00,
2013-07-21 03:15:00,70.6,66.9,29.80,WNW,298,6.0,19.0,88,0.00,,,0.00,Wunderground v.1.15,2013-07-21 08:15:00,
2013-07-21 03:20:00,70.6,66.9,29.80,WNW,302,6.0,6.0,88,0.00,,,0.00,Wunderground v.1.15,2013-07-21 08:20:00,
2013-07-21 03:25:00,70.6,66.9,29.80,WNW,302,5.0,19.0,88,0.00,,,0.00,Wunderground v.1.15,2013-07-21 08:25:00,
2013-07-21 03:30:00,70.5,66.8,29.80,NW,306,5.0,5.0,88,0.00,,,0.00,Wunderground v.1.15,2013-07-21 08:30:00,
2013-07-21 03:35:00,70.4,66.7,29.79,NW,306,3.0,19.0,88,0.00,,,0.00,Wunderground v.1.15,2013-07-21 08:35:00,
2013-07-21 03:45:00,70.1,66.4,29.79,NW,306,1.0,19.0,88,0.00,,,0.00,Wunderground v.1.15,2013-07-21 08:45:00,
2013-07-21 03:50:00,69.9,66.2,29.78,NW,306,2.0,2.0,88,0.00,,,0.00,Wunderground v.1.15,2013-07-21 08:50:00,
2013-07-21 03:55:00,69.8,66.4,29.78,NW,306,1.0,19.0,89,0.00,,,0.00,Wunderground v.1.15,2013-07-21 08:55:00,
2013-07-21 04:00:00,69.7,66.3,29.78,NW,306,0.0,19.0,89,0.00,,,0.00,Wunderground v.1.15,2013-07-21 09:00:00,
2013-07-21 04:10:00,69.7,66.3,29.78,NW,306,1.0,19.0,89,0.00,,,0.00,Wunderground v.1.15,2013-07-21 09:10:00,
2013-07-21 04:20:00,69.9,66.5,29.78,NW,306,1.0,19.0,89,0.00,,,0.00,Wunderground v.1.15,2013-07-21 09:20:00,
2013-07-21 04:25:00,69.9,66.2,29.78,NW,306,2.0,19.0,88,0.00,,,0.00,Wunderground v.1.15,2013-07-21 09:25:00,
2013-07-21 04:30:00,70.0,66.3,29.77,NW,306,3.0,3.0,88,0.00,,,0.00,Wunderground v.1.15,2013-07-21 09:30:00,
2013-07-21 04:35:00,70.0,66.3,29.77,NW,306,3.0,4.0,88,0.00,,,0.00,Wunderground v.1.15,2013-07-21 09:35:00,
2013-07-21 04:40:00,70.0,66.3,29.76,NW,305,4.0,19.0,88,0.00,,,0.00,Wunderground v.1.15,2013-07-21 09:40:00,
2013-07-21 04:45:00,70.1,66.4,29.75,SE,134,6.0,19.0,88,0.00,,,0.00,Wunderground v.1.15,2013-07-21 09:45:00,
2013-07-21 04:55:00,70.4,66.3,29.74,SSE,157,8.0,19.0,87,0.00,,,0.00,Wunderground v.1.15,2013-07-21 09:55:00,
2013-07-21 05:00:00,70.6,66.5,29.73,SSE,165,8.0,19.0,87,0.00,,,0.00,Wunderground v.1.15,2013-07-21 10:00:00,
2013-07-21 05:10:00,70.9,66.5,29.72,South,175,9.0,19.0,86,0.00,,,0.00,Wunderground v.1.15,2013-07-21 10:10:00,
2013-07-21 05:15:00,71.0,66.6,29.72,South,179,9.0,19.0,86,0.00,,,0.00,Wunderground v.1.15,2013-07-21 10:15:00,
2013-07-21 05:20:00,71.0,66.3,29.71,SSE,168,10.0,19.0,85,0.00,,,0.00,Wunderground v.1.15,2013-07-21 10:20:00,
2013-07-21 05:30:00,71.0,66.3,29.71,SSE,159,11.0,19.0,85,0.00,,,0.00,Wunderground v.1.15,2013-07-21 10:30:00,
2013-07-21 05:35:00,70.9,66.5,29.71,South,175,11.0,19.0,86,0.00,,,0.00,Wunderground v.1.15,2013-07-21 10:35:00,
2013-07-21 05:40:00,70.8,66.4,29.72,SSE,166,12.0,12.0,86,0.00,,,0.00,Wunderground v.1.15,2013-07-21 10:40:00,
2013-07-21 05:45:00,70.5,66.1,29.72,SSE,162,11.0,19.0,86,0.00,,,0.00,Wunderground v.1.15,2013-07-21 10:45:00,
2013-07-21 05:50:00,70.3,66.2,29.72,South,190,10.0,10.0,87,0.00,,,0.00,Wunderground v.1.15,2013-07-21 10:50:00,
2013-07-21 05:55:00,70.2,66.1,29.72,South,176,9.0,19.0,87,0.00,,,0.00,Wunderground v.1.15,2013-07-21 10:55:00,
2013-07-21 06:00:00,70.2,66.5,29.73,South,191,7.0,19.0,88,0.00,,,0.00,Wunderground v.1.15,2013-07-21 11:00:00,
2013-07-21 06:05:00,70.3,66.6,29.73,South,190,6.0,19.0,88,0.00,,,0.00,Wunderground v.1.15,2013-07-21 11:05:00,
2013-07-21 06:15:00,70.3,66.6,29.73,SSW,198,3.0,19.0,88,0.00,,,0.00,Wunderground v.1.15,2013-07-21 11:15:00,
2013-07-21 06:20:00,70.0,66.0,29.74,NW,317,3.0,19.0,87,0.00,,,0.00,Wunderground v.1.15,2013-07-21 11:20:00,
2013-07-21 06:25:00,69.7,66.0,29.73,NW,317,4.0,19.0,88,0.00,,,0.00,Wunderground v.1.15,2013-07-21 11:25:00,
2013-07-21 06:35:00,68.9,65.5,29.74,NNW,329,4.0,19.0,89,0.00,,,0.00,Wunderground v.1.15,2013-07-21 11:35:00,
2013-07-21 06:40:00,68.7,65.6,29.75,NNW,329,3.0,19.0,90,0.00,,,0.00,Wunderground v.1.15,2013-07-21 11:40:00,
2013-07-21 06:45:00,68.6,65.5,29.75,NNW,347,4.0,19.0,90,0.00,,,0.00,Wunderground v.1.15,2013-07-21 11:45:00,
2013-07-21 06:50:00,68.6,65.9,29.75,NNW,348,7.0,19.0,91,0.00,,,0.00,Wunderground v.1.15,2013-07-21 11:50:00,
2013-07-21 06:55:00,68.6,65.9,29.75,North,355,7.0,19.0,91,0.00,,,0.00,Wunderground v.1.15,2013-07-21 11:55:00,
2013-07-21 07:00:00,68.6,65.9,29.76,North,355,7.0,7.0,91,0.00,,,0.00,Wunderground v.1.15,2013-07-21 12:00:00,
2013-07-21 07:10:00,68.8,66.4,29.78,North,355,7.0,19.0,92,0.00,,,0.00,Wunderground v.1.15,2013-07-21 12:10:00,
2013-07-21 07:20:00,69.4,67.0,29.78,NNW,348,6.0,6.0,92,0.00,,,0.00,Wunderground v.1.15,2013-07-21 12:20:00,
2013-07-21 07:25:00,69.7,67.0,29.79,NNW,348,5.0,19.0,91,0.00,,,0.00,Wunderground v.1.15,2013-07-21 12:25:00,
2013-07-21 07:30:00,70.0,67.3,29.79,NNW,348,4.0,4.0,91,0.00,,,0.00,Wunderground v.1.15,2013-07-21 12:30:00,
2013-07-21 07:35:00,70.3,67.2,29.79,NNW,348,2.0,19.0,90,0.00,,,0.00,Wunderground v.1.15,2013-07-21 12:35:00,
2013-07-21 07:40:00,70.4,67.3,29.79,NNW,348,0.0,19.0,90,0.00,,,0.00,Wunderground v.1.15,2013-07-21 12:40:00,
2013-07-21 07:45:00,70.6,67.5,29.79,NNW,348,0.0,19.0,90,0.00,,,0.00,Wunderground v.1.15,2013-07-21 12:45:00,
2013-07-21 07:50:00,70.8,67.4,29.79,NNW,348,1.0,19.0,89,0.00,,,0.00,Wunderground v.1.15,2013-07-21 12:50:00,
2013-07-21 07:55:00,71.1,67.7,29.80,NNW,348,3.0,19.0,89,0.00,,,0.00,Wunderground v.1.15,2013-07-21 12:55:00,
2013-07-21 08:00:00,71.3,67.9,29.79,NNW,348,4.0,19.0,89,0.00,,,0.00,Wunderground v.1.15,2013-07-21 13:00:00,
2013-07-21 08:10:00,71.8,68.1,29.80,North,349,5.0,5.0,88,0.00,,,0.00,Wunderground v.1.15,2013-07-21 13:10:00,
2013-07-21 08:15:00,72.0,67.9,29.79,North,349,4.0,19.0,87,0.00,,,0.00,Wunderground v.1.15,2013-07-21 13:15:00,
2013-07-21 08:20:00,72.3,68.2,29.80,North,349,4.0,19.0,87,0.00,,,0.00,Wunderground v.1.15,2013-07-21 13:20:00,
2013-07-21 08:25:00,72.6,68.2,29.80,NNW,348,5.0,19.0,86,0.00,,,0.00,Wunderground v.1.15,2013-07-21 13:25:00,
2013-07-21 08:30:00,72.9,68.1,29.79,NNW,339,4.0,19.0,85,0.00,,,0.00,Wunderground v.1.15,2013-07-21 13:30:00,
2013-07-21 08:35:00,73.1,68.3,29.80,NNW,336,4.0,19.0,85,0.00,,,0.00,Wunderground v.1.15,2013-07-21 13:35:00,
2013-07-21 08:40:00,73.3,68.2,29.79,NW,319,5.0,19.0,84,0.00,,,0.00,Wunderground v.1.15,2013-07-21 13:40:00,
2013-07-21 08:50:00,73.7,68.6,29.80,SW,232,3.0,3.0,84,0.00,,,0.00,Wunderground v.1.15,2013-07-21 13:50:00,
2013-07-21 08:55:00,73.9,68.1,29.79,SSW,200,3.0,8.0,82,0.00,,,0.00,Wunderground v.1.15,2013-07-21 13:55:00,
2013-07-21 09:00:00,74.3,68.8,29.79,SSW,210,4.0,19.0,83,0.00,,,0.00,Wunderground v.1.15,2013-07-21 14:00:00,
2013-07-21 09:10:00,74.7,68.5,29.79,SSW,207,5.0,19.0,81,0.00,,,0.00,Wunderground v.1.15,2013-07-21 14:10:00,
2013-07-21 09:15:00,74.6,68.4,29.79,SSW,205,5.0,19.0,81,0.00,,,0.00,Wunderground v.1.15,2013-07-21 14:15:00,
2013-07-21 09:25:00,75.0,69.1,29.78,SSW,199,5.0,19.0,82,0.00,,,0.00,Wunderground v.1.15,2013-07-21 14:25:00,
2013-07-21 09:30:00,75.6,69.4,29.78,SSW,194,5.0,5.0,81,0.00,,,0.00,Wunderground v.1.15,2013-07-21 14:30:00,
2013-07-21 09:35:00,75.7,68.7,29.78,SSW,200,4.0,7.0,79,0.00,,,0.00,Wunderground v.1.15,2013-07-21 14:35:00,
2013-07-21 09:40:00,75.7,69.1,29.78,SSW,208,5.0,5.0,80,0.00,,,0.00,Wunderground v.1.15,2013-07-21 14:40:00,
2013-07-21 09:45:00,76.2,69.6,29.78,SSW,212,4.0,19.0,80,0.00,,,0.00,Wunderground v.1.15,2013-07-21 14:45:00,
2013-07-21 09:50:00,77.1,70.1,29.78,SSW,207,3.0,3.0,79,0.00,,,0.00,Wunderground v.1.15,2013-07-21 14:50:00,
2013-07-21 10:00:00,78.5,70.3,29.78,SW,216,4.0,4.0,76,0.00,,,0.00,Wunderground v.1.15,2013-07-21 15:00:00,
2013-07-21 10:10:00,79.3,70.3,29.78,West,264,4.0,19.0,74,0.00,,,0.00,Wunderground v.1.15,2013-07-21 15:10:00,
2013-07-21 10:15:00,79.7,70.3,29.77,WSW,240,3.0,19.0,73,0.00,,,0.00,Wunderground v.1.15,2013-07-21 15:15:00,
2013-07-21 10:20:00,80.1,70.3,29.77,WSW,254,3.0,19.0,72,0.00,,,0.00,Wunderground v.1.15,2013-07-21 15:20:00,
2013-07-21 10:25:00,80.2,70.4,29.77,SSW,205,3.0,19.0,72,0.00,,,0.00,Wunderground v.1.15,2013-07-21 15:25:00,
2013-07-21 10:35:00,80.3,70.0,29.77,South,188,4.0,19.0,71,0.00,,,0.00,Wunderground v.1.15,2013-07-21 15:35:00,
2013-07-21 10:40:00,80.3,69.6,29.76,SSW,200,5.0,19.0,70,0.00,,,0.00,Wunderground v.1.15,2013-07-21 15:40:00,
2013-07-21 10:45:00,80.1,69.8,29.76,SSW,209,7.0,19.0,71,0.00,,,0.00,Wunderground v.1.15,2013-07-21 15:45:00,
2013-07-21 10:50:00,80.2,69.9,29.76,SSW,199,6.0,19.0,71,0.00,,,0.00,Wunderground v.1.15,2013-07-21 15:50:00,
2013-07-21 10:55:00,80.5,69.8,29.76,SSW,205,6.0,19.0,70,0.00,,,0.00,Wunderground v.1.15,2013-07-21 15:55:00,
2013-07-21 11:05:00,80.9,70.2,29.76,SSW,207,6.0,19.0,70,0.00,,,0.00,Wunderground v.1.15,2013-07-21 16:05:00,
2013-07-21 11:10:00,81.2,70.9,29.76,SSW,207,6.0,6.0,71,0.00,,,0.00,Wunderground v.1.15,2013-07-21 16:10:00,
2013-07-21 11:15:00,81.4,69.4,29.76,SSW,204,8.0,9.0,67,0.00,,,0.00,Wunderground v.1.15,2013-07-21 16:15:00,
2013-07-21 11:20:00,81.4,70.2,29.76,SW,215,8.0,8.0,69,0.00,,,0.00,Wunderground v.1.15,2013-07-21 16:20:00,
2013-07-21 11:25:00,81.9,70.7,29.76,SSW,211,6.0,19.0,69,0.00,,,0.00,Wunderground v.1.15,2013-07-21 16:25:00,
2013-07-21 11:30:00,82.2,70.1,29.75,SSW,203,6.0,19.0,67,0.00,,,0.00,Wunderground v.1.15,2013-07-21 16:30:00,
2013-07-21 11:40:00,83.0,69.6,29.75,SSW,200,6.0,19.0,64,0.00,,,0.00,Wunderground v.1.15,2013-07-21 16:40:00,
2013-07-21 11:45:00,83.0,70.0,29.75,WSW,251,6.0,19.0,65,0.00,,,0.00,Wunderground v.1.15,2013-07-21 16:45:00,
2013-07-21 11:50:00,83.3,69.8,29.75,SSW,207,5.0,5.0,64,0.00,,,0.00,Wunderground v.1.15,2013-07-21 16:50:00,
2013-07-21 11:55:00,83.6,70.1,29.75,WNW,301,5.0,19.0,64,0.00,,,0.00,Wunderground v.1.15,2013-07-21 16:55:00,
2013-07-21 12:05:00,84.1,69.7,29.75,SSW,209,4.0,19.0,62,0.00,,,0.00,Wunderground v.1.15,2013-07-21 17:05:00,
2013-07-21 12:15:00,84.4,69.5,29.75,SSW,205,5.0,19.0,61,0.00,,,0.00,Wunderground v.1.15,2013-07-21 17:15:00,
2013-07-21 12:20:00,84.6,70.6,29.75,SSW,203,5.0,5.0,63,0.00,,,0.00,Wunderground v.1.15,2013-07-21 17:20:00,
2013-07-21 12:25:00,84.5,70.5,29.74,SSW,209,5.0,19.0,63,0.00,,,0.00,Wunderground v.1.15,2013-07-21 17:25:00,
2013-07-21 12:30:00,84.8,70.3,29.74,SSW,210,5.0,5.0,62,0.00,,,0.00,Wunderground v.1.15,2013-07-21 17:30:00,
2013-07-21 12:35:00,84.9,70.4,29.74,SSW,212,5.0,19.0,62,0.00,,,0.00,Wunderground v.1.15,2013-07-21 17:35:00,
2013-07-21 12:40:00,85.1,70.1,29.74,SW,220,4.0,4.0,61,0.00,,,0.00,Wunderground v.1.15,2013-07-21 17:40:00,
2013-07-21 12:50:00,85.9,70.4,29.73,SSW,211,4.0,4.0,60,0.00,,,0.00,Wunderground v.1.15,2013-07-21 17:50:00,
2013-07-21 12:55:00,85.9,69.4,29.73,WNW,293,5.0,8.0,58,0.00,,,0.00,Wunderground v.1.15,2013-07-21 17:55:00,
2013-07-21 13:00:00,85.9,69.4,29.73,SE,143,5.0,5.0,58,0.00,,,0.00,Wunderground v.1.15,2013-07-21 18:00:00,
2013-07-21 13:10:00,85.5,69.0,29.73,South,172,7.0,19.0,58,0.00,,,0.00,Wunderground v.1.15,2013-07-21 18:10:00,
2013-07-21 13:15:00,85.4,68.9,29.72,SSW,200,7.0,19.0,58,0.00,,,0.00,Wunderground v.1.15,2013-07-21 18:15:00,
2013-07-21 13:25:00,86.0,69.5,29.71,SSW,204,5.0,19.0,58,0.00,,,0.00,Wunderground v.1.15,2013-07-21 18:25:00,
2013-07-21 13:30:00,86.3,69.3,29.71,South,171,5.0,19.0,57,0.00,,,0.00,Wunderground v.1.15,2013-07-21 18:30:00,
2013-07-21 13:35:00,86.6,70.1,29.71,SSW,199,7.0,19.0,58,0.00,,,0.00,Wunderground v.1.15,2013-07-21 18:35:00,
2013-07-21 13:40:00,87.0,69.4,29.72,West,259,5.0,5.0,56,0.00,,,0.00,Wunderground v.1.15,2013-07-21 18:40:00,
2013-07-21 13:45:00,87.3,69.7,29.71,SSW,199,4.0,19.0,56,0.00,,,0.00,Wunderground v.1.15,2013-07-21 18:45:00,
2013-07-21 13:55:00,87.2,69.6,29.71,SSW,192,6.0,19.0,56,0.00,,,0.00,Wunderground v.1.15,2013-07-21 18:55:00,
2013-07-21 14:00:00,87.3,69.7,29.71,South,180,7.0,19.0,56,0.00,,,0.00,Wunderground v.1.15,2013-07-21 19:00:00,
2013-07-21 14:10:00,87.5,69.3,29.71,SSW,202,8.0,19.0,55,0.00,,,0.00,Wunderground v.1.15,2013-07-21 19:10:00,
2013-07-21 14:15:00,87.4,69.8,29.70,South,184,7.0,19.0,56,0.00,,,0.00,Wunderground v.1.15,2013-07-21 19:15:00,
2013-07-21 14:20:00,87.2,70.1,29.70,SSW,198,7.0,19.0,57,0.00,,,0.00,Wunderground v.1.15,2013-07-21 19:20:00,
2013-07-21 14:30:00,87.5,69.9,29.70,SW,215,7.0,7.0,56,0.00,,,0.00,Wunderground v.1.15,2013-07-21 19:30:00,
2013-07-21 14:35:00,87.5,69.9,29.69,SSW,196,6.0,19.0,56,0.00,,,0.00,Wunderground v.1.15,2013-07-21 19:35:00,
2013-07-21 14:40:00,87.4,70.8,29.69,SSW,192,4.0,19.0,58,0.00,,,0.00,Wunderground v.1.15,2013-07-21 19:40:00,
2013-07-21 14:45:00,87.5,70.4,29.69,SSW,198,5.0,19.0,57,0.00,,,0.00,Wunderground v.1.15,2013-07-21 19:45:00,
2013-07-21 14:50:00,87.9,70.2,29.69,South,186,6.0,6.0,56,0.00,,,0.00,Wunderground v.1.15,2013-07-21 19:50:00,
2013-07-21 14:55:00,88.2,70.5,29.69,SSW,205,5.0,8.0,56,0.00,,,0.00,Wunderground v.1.15,2013-07-21 19:55:00,
2013-07-21 15:05:00,88.5,69.7,29.69,South,185,6.0,19.0,54,0.00,,,0.00,Wunderground v.1.15,2013-07-21 20:05:00,
2013-07-21 15:15:00,88.7,71.0,29.68,SSW,207,5.0,19.0,56,0.00,,,0.00,Wunderground v.1.15,2013-07-21 20:15:00,
2013-07-21 15:20:00,88.9,71.7,29.68,SW,216,4.0,4.0,57,0.00,,,0.00,Wunderground v.1.15,2013-07-21 20:20:00,
2013-07-21 15:25:00,88.3,70.6,29.68,South,174,5.0,8.0,56,0.00,,,0.00,Wunderground v.1.15,2013-07-21 20:25:00,
2013-07-21 15:30:00,87.9,70.8,29.68,South,182,6.0,19.0,57,0.00,,,0.00,Wunderground v.1.15,2013-07-21 20:30:00,
2013-07-21 15:40:00,88.3,69.5,29.68,SSW,196,8.0,8.0,54,0.00,,,0.00,Wunderground v.1.15,2013-07-21 20:40:00,
2013-07-21 15:45:00,88.0,70.3,29.68,South,190,7.0,10.0,56,0.00,,,0.00,Wunderground v.1.15,2013-07-21 20:45:00,
2013-07-21 15:50:00,88.7,70.5,29.68,South,175,7.0,19.0,55,0.00,,,0.00,Wunderground v.1.15,2013-07-21 20:50:00,
2013-07-21 15:55:00,89.2,69.8,29.68,WSW,249,6.0,19.0,53,0.00,,,0.00,Wunderground v.1.15,2013-07-21 20:55:00,
2013-07-21 16:00:00,89.4,70.0,29.68,SSW,200,5.0,19.0,53,0.00,,,0.00,Wunderground v.1.15,2013-07-21 21:00:00,
2013-07-21 16:10:00,89.0,70.7,29.68,SSW,209,3.0,19.0,55,0.00,,,0.00,Wunderground v.1.15,2013-07-21 21:10:00,
2013-07-21 16:20:00,89.1,70.3,29.68,SSW,212,5.0,5.0,54,0.00,,,0.00,Wunderground v.1.15,2013-07-21 21:20:00,
2013-07-21 16:25:00,89.2,70.9,29.68,North,355,3.0,19.0,55,0.00,,,0.00,Wunderground v.1.15,2013-07-21 21:25:00,
2013-07-21 16:30:00,89.1,69.2,29.68,SSW,192,4.0,19.0,52,0.00,,,0.00,Wunderground v.1.15,2013-07-21 21:30:00,
2013-07-21 16:35:00,89.1,70.3,29.67,SSE,147,4.0,19.0,54,0.00,,,0.00,Wunderground v.1.15,2013-07-21 21:35:00,
2013-07-21 16:45:00,89.2,69.3,29.67,SSW,200,5.0,19.0,52,0.00,,,0.00,Wunderground v.1.15,2013-07-21 21:45:00,
2013-07-21 16:50:00,89.3,69.4,29.67,South,173,5.0,19.0,52,0.00,,,0.00,Wunderground v.1.15,2013-07-21 21:50:00,
2013-07-21 16:55:00,89.2,69.3,29.67,SSW,194,7.0,19.0,52,0.00,,,0.00,Wunderground v.1.15,2013-07-21 21:55:00,
2013-07-21 17:00:00,89.3,69.4,29.67,SSW,196,6.0,6.0,52,0.00,,,0.00,Wunderground v.1.15,2013-07-21 22:00:00,
2013-07-21 17:10:00,89.8,68.7,29.67,SSW,200,6.0,19.0,50,0.00,,,0.00,Wunderground v.1.15,2013-07-21 22:10:00,
2013-07-21 17:20:00,89.8,69.3,29.67,SSW,204,8.0,8.0,51,0.00,,,0.00,Wunderground v.1.15,2013-07-21 22:20:00,
2013-07-21 17:25:00,90.0,69.4,29.66,SSW,211,5.0,19.0,51,0.00,,,0.00,Wunderground v.1.15,2013-07-21 22:25:00,
2013-07-21 17:30:00,90.0,70.0,29.66,SSW,201,4.0,19.0,52,0.00,,,0.00,Wunderground v.1.15,2013-07-21 22:30:00,
2013-07-21 17:35:00,89.8,69.8,29.66,SSW,205,6.0,19.0,52,0.00,,,0.00,Wunderground v.1.15,2013-07-21 22:35:00,
2013-07-21 17:40:00,89.4,69.5,29.67,SSW,199,8.0,8.0,52,0.00,,,0.00,Wunderground v.1.15,2013-07-21 22:40:00,
2013-07-21 17:45:00,89.0,69.6,29.67,South,189,5.0,19.0,53,0.00,,,0.00,Wunderground v.1.15,2013-07-21 22:45:00,
2013-07-21 17:55:00,88.5,69.7,29.67,South,188,5.0,19.0,54,0.00,,,0.00,Wunderground v.1.15,2013-07-21 22:55:00,
2013-07-21 18:05:00,89.7,69.7,29.66,SSW,197,6.0,19.0,52,0.00,,,0.00,Wunderground v.1.15,2013-07-21 23:05:00,
2013-07-21 18:10:00,90.1,70.1,29.67,SSW,196,5.0,19.0,52,0.00,,,0.00,Wunderground v.1.15,2013-07-21 23:10:00,
2013-07-21 18:15:00,90.1,70.1,29.67,SSW,198,4.0,19.0,52,0.00,,,0.00,Wunderground v.1.15,2013-07-21 23:15:00,
2013-07-21 18:20:00,90.0,69.4,29.67,SSW,205,5.0,19.0,51,0.00,,,0.00,Wunderground v.1.15,2013-07-21 23:20:00,
2013-07-21 18:30:00,89.5,70.1,29.66,SSW,195,5.0,5.0,53,0.00,,,0.00,Wunderground v.1.15,2013-07-21 23:30:00,
2013-07-21 18:35:00,89.7,70.3,29.66,SSW,196,6.0,6.0,53,0.00,,,0.00,Wunderground v.1.15,2013-07-21 23:35:00,
2013-07-21 18:40:00,89.9,69.9,29.66,SSW,213,5.0,5.0,52,0.00,,,0.00,Wunderground v.1.15,2013-07-21 23:40:00,
2013-07-21 18:45:00,90.0,70.0,29.66,SW,214,3.0,8.0,52,0.00,,,0.00,Wunderground v.1.15,2013-07-21 23:45:00,
2013-07-21 18:50:00,89.6,69.6,29.66,SW,218,3.0,3.0,52,0.00,,,0.00,Wunderground v.1.15,2013-07-21 23:50:00,
2013-07-21 19:00:00,89.6,70.2,29.66,SSW,205,4.0,4.0,53,0.00,,,0.00,Wunderground v.1.15,2013-07-22 00:00:00,
2013-07-21 19:05:00,89.7,70.8,29.66,SSW,202,4.0,6.0,54,0.00,,,0.00,Wunderground v.1.15,2013-07-22 00:05:00,
2013-07-21 19:15:00,88.8,70.0,29.66,SSW,202,5.0,19.0,54,0.00,,,0.00,Wunderground v.1.15,2013-07-22 00:15:00,
2013-07-21 19:20:00,88.3,70.1,29.66,SSW,202,4.0,4.0,55,0.00,,,0.00,Wunderground v.1.15,2013-07-22 00:20:00,
2013-07-21 19:25:00,88.2,70.5,29.66,SSW,198,3.0,5.0,56,0.00,,,0.00,Wunderground v.1.15,2013-07-22 00:25:00,
2013-07-21 19:35:00,87.9,70.8,29.67,SSW,205,5.0,19.0,57,0.00,,,0.00,Wunderground v.1.15,2013-07-22 00:35:00,
2013-07-21 19:40:00,87.9,70.2,29.67,SSW,204,5.0,19.0,56,0.00,,,0.00,Wunderground v.1.15,2013-07-22 00:40:00,
2013-07-21 19:45:00,87.7,70.6,29.66,SSW,204,5.0,19.0,57,0.00,,,0.00,Wunderground v.1.15,2013-07-22 00:45:00,
2013-07-21 19:50:00,87.7,70.6,29.66,SSW,204,4.0,4.0,57,0.00,,,0.00,Wunderground v.1.15,2013-07-22 00:50:00,
2013-07-21 19:55:00,87.6,70.5,29.67,SSW,204,3.0,19.0,57,0.00,,,0.00,Wunderground v.1.15,2013-07-22 00:55:00,
2013-07-21 20:00:00,87.5,70.4,29.67,SSW,204,4.0,19.0,57,0.00,,,0.00,Wunderground v.1.15,2013-07-22 01:00:00,
2013-07-21 20:10:00,87.5,69.9,29.68,SSW,197,5.0,5.0,56,0.00,,,0.00,Wunderground v.1.15,2013-07-22 01:10:00,
2013-07-21 20:20:00,87.7,70.6,29.69,SSW,197,3.0,3.0,57,0.00,,,0.00,Wunderground v.1.15,2013-07-22 01:20:00,
2013-07-21 20:25:00,87.8,72.2,29.69,SSW,202,2.0,19.0,60,0.00,,,0.00,Wunderground v.1.15,2013-07-22 01:25:00,
2013-07-21 20:30:00,87.8,72.7,29.69,SSW,202,1.0,1.0,61,0.00,,,0.00,Wunderground v.1.15,2013-07-22 01:30:00,
2013-07-21 20:35:00,87.8,72.7,29.69,SSW,202,0.0,19.0,61,0.00,,,0.00,Wunderground v.1.15,2013-07-22 01:35:00,
2013-07-21 20:45:00,87.4,72.8,29.69,SSW,209,0.0,19.0,62,0.00,,,0.00,Wunderground v.1.15,2013-07-22 01:45:00,
2013-07-21 20:50:00,87.1,73.0,29.69,SSW,209,0.0,19.0,63,0.00,,,0.00,Wunderground v.1.15,2013-07-22 01:50:00,
2013-07-21 20:55:00,86.8,72.7,29.69,SSW,210,0.0,19.0,63,0.00,,,0.00,Wunderground v.1.15,2013-07-22 01:55:00,
2013-07-21 21:00:00,86.4,72.3,29.69,SSW,211,0.0,19.0,63,0.00,,,0.00,Wunderground v.1.15,2013-07-22 02:00:00,
2013-07-21 21:05:00,86.0,72.9,29.68,SSW,211,0.0,19.0,65,0.00,,,0.00,Wunderground v.1.15,2013-07-22 02:05:00,
2013-07-21 21:15:00,84.7,72.1,29.68,SSW,210,2.0,19.0,66,0.00,,,0.00,Wunderground v.1.15,2013-07-22 02:15:00,
2013-07-21 21:25:00,83.8,71.7,29.68,SSW,210,3.0,19.0,67,0.00,,,0.00,Wunderground v.1.15,2013-07-22 02:25:00,
2013-07-21 21:30:00,83.6,71.9,29.68,SSW,210,3.0,19.0,68,0.00,,,0.00,Wunderground v.1.15,2013-07-22 02:30:00,
2013-07-21 21:35:00,83.5,71.8,29.68,SSW,210,3.0,19.0,68,0.00,,,0.00,Wunderground v.1.15,2013-07-22 02:35:00,
2013-07-21 21:40:00,83.3,72.1,29.68,SSW,210,3.0,19.0,69,0.00,,,0.00,Wunderground v.1.15,2013-07-22 02:40:00,
2013-07-21 21:50:00,82.8,71.6,29.69,SSW,211,3.0,3.0,69,0.00,,,0.00,Wunderground v.1.15,2013-07-22 02:50:00,
2013-07-21 21:55:00,82.5,71.3,29.69,SSW,211,2.0,19.0,69,0.00,,,0.00,Wunderground v.1.15,2013-07-22 02:55:00,
2013-07-21 22:00:00,82.3,71.5,29.69,SSW,211,2.0,2.0,70,0.00,,,0.00,Wunderground v.1.15,2013-07-22 03:00:00,
2013-07-21 22:05:00,82.1,71.3,29.69,SSW,211,2.0,19.0,70,0.00,,,0.00,Wunderground v.1.15,2013-07-22 03:05:00,
2013-07-21 22:15:00,81.9,71.2,29.70,SSW,211,3.0,19.0,70,0.00,,,0.00,Wunderground v.1.15,2013-07-22 03:15:00,
2013-07-21 22:20:00,81.7,71.0,29.70,SSW,211,3.0,19.0,70,0.00,,,0.00,Wunderground v.1.15,2013-07-22 03:20:00,
2013-07-21 22:25:00,81.6,70.9,29.70,SSW,211,4.0,19.0,70,0.00,,,0.00,Wunderground v.1.15,2013-07-22 03:25:00,
2013-07-21 22:30:00,81.6,70.9,29.70,SSW,209,5.0,19.0,70,0.00,,,0.00,Wunderground v.1.15,2013-07-22 03:30:00,
2013-07-21 22:35:00,81.5,71.2,29.70,SSW,209,5.0,19.0,71,0.00,,,0.00,Wunderground v.1.15,2013-07-22 03:35:00,
2013-07-21 22:40:00,81.3,71.0,29.71,SSW,210,4.0,19.0,71,0.00,,,0.00,Wunderground v.1.15,2013-07-22 03:40:00,
2013-07-21 22:45:00,81.1,70.8,29.71,SSW,210,4.0,19.0,71,0.00,,,0.00,Wunderground v.1.15,2013-07-22 03:45:00,
2013-07-21 22:50:00,80.8,70.9,29.70,SSW,210,4.0,4.0,72,0.00,,,0.00,Wunderground v.1.15,2013-07-22 03:50:00,
2013-07-21 23:00:00,80.5,71.0,29.70,SSW,210,4.0,19.0,73,0.00,,,0.00,Wunderground v.1.15,2013-07-22 04:00:00,
2013-07-21 23:05:00,80.4,70.9,29.71,SSW,210,4.0,19.0,73,0.00,,,0.00,Wunderground v.1.15,2013-07-22 04:05:00,
2013-07-21 23:10:00,80.3,70.9,29.71,SSW,210,4.0,19.0,73,0.00,,,0.00,Wunderground v.1.15,2013-07-22 04:10:00,
2013-07-21 23:15:00,80.1,70.7,29.71,SSW,210,4.0,19.0,73,0.00,,,0.00,Wunderground v.1.15,2013-07-22 04:15:00,
2013-07-21 23:20:00,79.9,70.9,29.71,SSW,211,4.0,19.0,74,0.00,,,0.00,Wunderground v.1.15,2013-07-22 04:20:00,
2013-07-21 23:25:00,79.8,70.8,29.71,SSW,211,5.0,19.0,74,0.00,,,0.00,Wunderground v.1.15,2013-07-22 04:25:00,
2013-07-21 23:35:00,79.6,70.6,29.72,SSW,211,3.0,19.0,74,0.00,,,0.00,Wunderground v.1.15,2013-07-22 04:35:00,
2013-07-21 23:40:00,79.5,70.5,29.72,SSW,211,2.0,2.0,74,0.00,,,0.00,Wunderground v.1.15,2013-07-22 04:40:00,
2013-07-21 23:45:00,79.3,70.3,29.72,SSW,211,0.0,19.0,74,0.00,,,0.00,Wunderground v.1.15,2013-07-22 04:45:00,
2013-07-21 23:55:00,78.2,70.0,29.72,SSW,211,0.0,19.0,76,0.00,,,0.00,Wunderground v.1.15,2013-07-22 04:55:00,